UAL200 PGUM-PHNL

Flight info

Callsign UAL200
Flight time 6h 40m
Altitude 35000
Route DEWSS A450 RESEE/N0488F370 A450 BRIUN NONNI BOOKE BOOKE8
Aircraft B77W/H-SDE1E2E3FGHIJ2J3J4J5M1RWXY/LB1D1

Departure

Time 2026-04-20 23:30
Airport Antonio B. Won Pat International Airport (PGUM)

Arrival

Time 2026-04-21 06:11
Airport Daniel K. Inouye International Airport (PHNL)
Time Latitude Longitude Altitude Speed Heading
2026-04-20 22:51 13.49184 144.80586 301 ft 0 kts 331°
2026-04-20 23:13 13.49182 144.80587 305 ft 2 kts 330°
2026-04-20 23:13 13.49159 144.80601 303 ft 4 kts 328°
2026-04-20 23:13 13.49137 144.80614 304 ft 2 kts 329°
2026-04-20 23:14 13.49120 144.80628 299 ft 4 kts 285°
2026-04-20 23:14 13.49125 144.80651 302 ft 4 kts 238°
2026-04-20 23:14 13.49133 144.80665 302 ft 0 kts 240°
2026-04-20 23:17 13.49129 144.80658 302 ft 4 kts 240°
2026-04-20 23:17 13.49102 144.80610 302 ft 9 kts 240°
2026-04-20 23:17 13.49072 144.80554 304 ft 9 kts 242°
2026-04-20 23:18 13.49043 144.80497 302 ft 9 kts 242°
2026-04-20 23:18 13.49009 144.80441 303 ft 10 kts 231°
2026-04-20 23:18 13.48954 144.80386 304 ft 12 kts 224°
2026-04-20 23:18 13.48906 144.80320 302 ft 12 kts 238°
2026-04-20 23:19 13.48864 144.80250 302 ft 12 kts 240°
2026-04-20 23:19 13.48827 144.80173 301 ft 13 kts 244°
2026-04-20 23:19 13.48780 144.80071 301 ft 17 kts 244°
2026-04-20 23:19 13.48728 144.79961 299 ft 17 kts 244°
2026-04-20 23:20 13.48677 144.79852 298 ft 17 kts 246°
2026-04-20 23:20 13.48628 144.79739 298 ft 17 kts 246°
2026-04-20 23:20 13.48577 144.79629 297 ft 17 kts 244°
2026-04-20 23:20 13.48525 144.79518 296 ft 17 kts 244°
2026-04-20 23:21 13.48474 144.79407 295 ft 17 kts 246°
2026-04-20 23:21 13.48425 144.79296 295 ft 17 kts 245°
2026-04-20 23:21 13.48375 144.79184 295 ft 17 kts 245°
2026-04-20 23:21 13.48348 144.79126 294 ft 17 kts 245°
2026-04-20 23:22 13.48315 144.79054 294 ft 17 kts 244°
2026-04-20 23:22 13.48264 144.78945 295 ft 17 kts 245°
2026-04-20 23:23 13.48212 144.78831 295 ft 19 kts 245°
2026-04-20 23:23 13.48155 144.78704 289 ft 20 kts 245°
2026-04-20 23:23 13.48097 144.78577 288 ft 20 kts 245°
2026-04-20 23:23 13.48039 144.78450 286 ft 20 kts 245°
2026-04-20 23:24 13.47981 144.78323 285 ft 20 kts 245°
2026-04-20 23:24 13.47923 144.78196 284 ft 20 kts 245°
2026-04-20 23:24 13.47876 144.78136 281 ft 12 kts 205°
2026-04-20 23:24 13.47804 144.78166 270 ft 11 kts 120°
2026-04-20 23:25 13.47812 144.78219 271 ft 0 kts 65°
2026-04-20 23:29 13.47838 144.78276 271 ft 26 kts 65°
2026-04-20 23:29 13.48021 144.78679 276 ft 100 kts 65°
2026-04-20 23:30 13.48419 144.79549 283 ft 165 kts 64°
2026-04-20 23:30 13.48981 144.80746 602 ft 194 kts 64°
2026-04-20 23:30 13.49567 144.81984 1450 ft 191 kts 64°
2026-04-20 23:30 13.50149 144.83222 2039 ft 198 kts 65°
2026-04-20 23:31 13.50778 144.84566 2351 ft 221 kts 64°
2026-04-20 23:31 13.51488 144.86051 2729 ft 241 kts 63°
2026-04-20 23:31 13.52246 144.87631 3450 ft 251 kts 63°
2026-04-20 23:31 13.53019 144.89254 4236 ft 255 kts 64°
2026-04-20 23:32 13.53749 144.90923 4872 ft 262 kts 70°
2026-04-20 23:32 13.54368 144.92717 5540 ft 271 kts 72°
2026-04-20 23:32 13.54966 144.94563 6281 ft 274 kts 73°
2026-04-20 23:32 13.55573 144.96443 6980 ft 279 kts 73°
2026-04-20 23:33 13.56195 144.98354 7626 ft 284 kts 73°
2026-04-20 23:33 13.56831 145.00291 8320 ft 288 kts 72°
2026-04-20 23:33 13.57480 145.02251 9014 ft 292 kts 73°
2026-04-20 23:33 13.58043 145.03944 9578 ft 296 kts 73°
2026-04-20 23:34 13.58499 145.05310 9983 ft 302 kts 72°
2026-04-20 23:34 13.59189 145.07369 10523 ft 310 kts 73°
2026-04-20 23:35 13.59202 145.07409 10531 ft 310 kts 73°
2026-04-20 23:35 13.60416 145.11034 10802 ft 348 kts 72°
2026-04-20 23:35 13.61231 145.13458 10957 ft 370 kts 71°
2026-04-20 23:36 13.62091 145.16010 11338 ft 383 kts 72°
2026-04-20 23:36 13.62974 145.18622 11995 ft 389 kts 72°
2026-04-20 23:36 13.63565 145.20371 12477 ft 392 kts 71°
2026-04-20 23:36 13.64466 145.23036 13204 ft 396 kts 71°
2026-04-20 23:37 13.65376 145.25728 13932 ft 399 kts 71°
2026-04-20 23:37 13.66292 145.28442 14557 ft 403 kts 71°
2026-04-20 23:37 13.67208 145.31156 15168 ft 408 kts 71°
2026-04-20 23:37 13.68143 145.33928 15765 ft 413 kts 71°
2026-04-20 23:38 13.69090 145.36740 16358 ft 418 kts 71°
2026-04-20 23:38 13.70047 145.39582 16961 ft 422 kts 71°
2026-04-20 23:38 13.71012 145.42451 17555 ft 426 kts 72°
2026-04-20 23:38 13.71987 145.45347 18122 ft 431 kts 71°
2026-04-20 23:39 13.72970 145.48272 18644 ft 434 kts 71°
2026-04-20 23:39 13.73961 145.51220 19152 ft 438 kts 71°
2026-04-20 23:39 13.74961 145.54195 19683 ft 440 kts 71°
2026-04-20 23:39 13.75966 145.57186 20190 ft 444 kts 71°
2026-04-20 23:40 13.76978 145.60202 20692 ft 447 kts 71°
2026-04-20 23:40 13.77995 145.63233 21199 ft 450 kts 70°
2026-04-20 23:40 13.79009 145.66253 21669 ft 453 kts 70°
2026-04-20 23:40 13.80039 145.69326 22161 ft 456 kts 70°
2026-04-20 23:41 13.81077 145.72424 22613 ft 459 kts 70°
2026-04-20 23:41 13.82126 145.75552 23074 ft 462 kts 70°
2026-04-20 23:41 13.83178 145.78696 23522 ft 466 kts 69°
2026-04-20 23:41 13.84237 145.81861 23885 ft 469 kts 70°
2026-04-20 23:42 13.85301 145.85042 24258 ft 471 kts 70°
2026-04-20 23:42 13.86370 145.88241 24623 ft 474 kts 70°
2026-04-20 23:42 13.87446 145.91460 24994 ft 476 kts 70°
2026-04-20 23:42 13.88524 145.94690 25343 ft 479 kts 70°
2026-04-20 23:43 13.89216 145.96764 25565 ft 480 kts 70°
2026-04-20 23:43 13.90213 145.99749 25892 ft 483 kts 70°
2026-04-20 23:43 13.91308 146.03032 26229 ft 485 kts 70°
2026-04-20 23:44 13.92405 146.06323 26574 ft 488 kts 70°
2026-04-20 23:44 13.93509 146.09636 26889 ft 491 kts 70°
2026-04-20 23:44 13.94623 146.12981 27218 ft 493 kts 70°
2026-04-20 23:44 13.95737 146.16330 27541 ft 495 kts 70°
2026-04-20 23:45 13.96859 146.19702 27850 ft 498 kts 70°
2026-04-20 23:45 13.97969 146.23041 28167 ft 500 kts 70°
2026-04-20 23:45 13.99098 146.26437 28449 ft 502 kts 70°
2026-04-20 23:45 14.00231 146.29848 28735 ft 505 kts 70°
2026-04-20 23:46 14.01369 146.33275 28993 ft 507 kts 70°
2026-04-20 23:46 14.02512 146.36719 29257 ft 509 kts 70°
2026-04-20 23:46 14.03662 146.40188 29465 ft 512 kts 70°
2026-04-20 23:46 14.04819 146.43677 29689 ft 515 kts 70°
2026-04-20 23:47 14.05978 146.47176 29937 ft 516 kts 70°
2026-04-20 23:47 14.07137 146.50675 30255 ft 515 kts 70°
2026-04-20 23:47 14.08292 146.54167 30565 ft 514 kts 70°
2026-04-20 23:47 14.09441 146.57643 30900 ft 512 kts 70°
2026-04-20 23:48 14.10588 146.61112 31195 ft 512 kts 70°
2026-04-20 23:48 14.11724 146.64550 31495 ft 511 kts 70°
2026-04-20 23:48 14.12868 146.68014 31800 ft 511 kts 70°
2026-04-20 23:48 14.14012 146.71481 32113 ft 510 kts 70°
2026-04-20 23:49 14.15153 146.74937 32417 ft 509 kts 70°
2026-04-20 23:49 14.16292 146.78393 32705 ft 509 kts 70°
2026-04-20 23:49 14.17431 146.81848 32919 ft 510 kts 70°
2026-04-20 23:50 14.19720 146.88800 32983 ft 511 kts 70°
2026-04-20 23:50 14.22001 146.95736 32976 ft 509 kts 71°
2026-04-20 23:51 14.24260 147.02609 32988 ft 509 kts 71°
2026-04-20 23:51 14.26535 147.09542 32987 ft 509 kts 71°
2026-04-20 23:52 14.28805 147.16464 32981 ft 510 kts 71°
2026-04-20 23:52 14.31075 147.23394 32983 ft 510 kts 71°
2026-04-20 23:53 14.33346 147.30336 32979 ft 511 kts 71°
2026-04-20 23:53 14.35601 147.37238 32980 ft 511 kts 71°
2026-04-20 23:54 14.37868 147.44183 32977 ft 511 kts 71°
2026-04-20 23:54 14.40141 147.51152 32981 ft 511 kts 71°
2026-04-20 23:55 14.42406 147.58106 32983 ft 511 kts 71°
2026-04-20 23:55 14.44669 147.65061 32981 ft 511 kts 71°
2026-04-20 23:56 14.46916 147.71974 32982 ft 512 kts 71°
2026-04-20 23:56 14.49179 147.78947 32980 ft 512 kts 71°
2026-04-20 23:57 14.51441 147.85920 32982 ft 512 kts 71°
2026-04-20 23:57 14.53700 147.92894 32982 ft 512 kts 71°
2026-04-20 23:58 14.55957 147.99870 32982 ft 512 kts 71°
2026-04-20 23:58 14.58216 148.06861 32983 ft 512 kts 71°
2026-04-20 23:59 14.60462 148.13817 32983 ft 513 kts 71°
2026-04-20 23:59 14.62721 148.20823 32982 ft 513 kts 71°
2026-04-21 00:00 14.64973 148.27814 32980 ft 513 kts 71°
2026-04-21 00:00 14.67207 148.34757 32985 ft 513 kts 71°
2026-04-21 00:01 14.69454 148.41749 32984 ft 513 kts 71°
2026-04-21 00:01 14.71700 148.48747 32983 ft 513 kts 71°
2026-04-21 00:02 14.73945 148.55749 32979 ft 513 kts 71°
2026-04-21 00:02 14.76187 148.62746 32981 ft 513 kts 71°
2026-04-21 00:03 14.78427 148.69749 32980 ft 513 kts 71°
2026-04-21 00:03 14.80666 148.76758 32981 ft 513 kts 71°
2026-04-21 00:04 14.82905 148.83772 32983 ft 513 kts 71°
2026-04-21 00:04 14.85140 148.90784 32981 ft 514 kts 71°
2026-04-21 00:05 14.87362 148.97764 32978 ft 514 kts 71°
2026-04-21 00:05 14.89434 149.04842 32982 ft 514 kts 74°
2026-04-21 00:06 14.91311 149.11977 32976 ft 514 kts 75°
2026-04-21 00:06 14.93185 149.19108 32980 ft 514 kts 74°
2026-04-21 00:07 14.95083 149.26188 32982 ft 514 kts 74°
2026-04-21 00:07 14.97009 149.33310 32980 ft 514 kts 74°
2026-04-21 00:08 14.98935 149.40434 32980 ft 514 kts 74°
2026-04-21 00:08 15.00860 149.47571 32983 ft 514 kts 74°
2026-04-21 00:09 15.02779 149.54701 32981 ft 514 kts 74°
2026-04-21 00:09 15.04681 149.61777 32981 ft 514 kts 74°
2026-04-21 00:10 15.06598 149.68919 32980 ft 514 kts 74°
2026-04-21 00:10 15.08510 149.76053 32981 ft 514 kts 74°
2026-04-21 00:11 15.10419 149.83186 32983 ft 514 kts 74°
2026-04-21 00:11 15.12314 149.90275 32982 ft 514 kts 74°
2026-04-21 00:12 15.14224 149.97429 32978 ft 514 kts 74°
2026-04-21 00:12 15.16130 150.04576 32981 ft 514 kts 74°
2026-04-21 00:13 15.18031 150.11718 32980 ft 514 kts 74°
2026-04-21 00:13 15.19919 150.18819 32981 ft 514 kts 74°
2026-04-21 00:14 15.21800 150.25901 32983 ft 514 kts 74°
2026-04-21 00:14 15.23712 150.33114 32979 ft 515 kts 74°
2026-04-21 00:15 15.25605 150.40263 32979 ft 514 kts 74°
2026-04-21 00:15 15.27497 150.47416 32986 ft 515 kts 74°
2026-04-21 00:16 15.29385 150.54568 32981 ft 515 kts 74°
2026-04-21 00:16 15.31260 150.61677 32980 ft 514 kts 74°
2026-04-21 00:17 15.33144 150.68833 32976 ft 514 kts 74°
2026-04-21 00:17 15.35023 150.75978 32981 ft 514 kts 74°
2026-04-21 00:18 15.36902 150.83134 32982 ft 514 kts 74°
2026-04-21 00:18 15.38780 150.90295 32980 ft 514 kts 74°
2026-04-21 00:19 15.40654 150.97451 32980 ft 514 kts 74°
2026-04-21 00:19 15.42514 151.04565 32981 ft 514 kts 74°
2026-04-21 00:20 15.44384 151.11723 32983 ft 514 kts 74°
2026-04-21 00:20 15.46257 151.18906 32980 ft 515 kts 74°
2026-04-21 00:21 15.48123 151.26072 32978 ft 515 kts 74°
2026-04-21 00:21 15.49986 151.33236 32978 ft 515 kts 75°
2026-04-21 00:22 15.51848 151.40408 32979 ft 515 kts 75°
2026-04-21 00:22 15.53393 151.46365 32981 ft 515 kts 75°
2026-04-21 00:23 15.55555 151.54716 32980 ft 515 kts 75°
2026-04-21 00:23 15.57100 151.60689 32981 ft 515 kts 75°
2026-04-21 00:24 15.58955 151.67874 32983 ft 515 kts 74°
2026-04-21 00:24 15.60808 151.75060 32978 ft 515 kts 75°
2026-04-21 00:25 15.62657 151.82239 32975 ft 515 kts 75°
2026-04-21 00:25 15.64493 151.89381 32979 ft 515 kts 75°
2026-04-21 00:26 15.66339 151.96571 32983 ft 515 kts 74°
2026-04-21 00:26 15.68185 152.03768 32980 ft 515 kts 74°
2026-04-21 00:27 15.70027 152.10966 32981 ft 515 kts 75°
2026-04-21 00:27 15.71856 152.18118 32981 ft 515 kts 75°
2026-04-21 00:28 15.73692 152.25313 32983 ft 515 kts 75°
2026-04-21 00:28 15.75528 152.32515 32977 ft 516 kts 75°
2026-04-21 00:29 15.77361 152.39715 32976 ft 516 kts 75°
2026-04-21 00:29 15.79191 152.46918 32979 ft 515 kts 75°
2026-04-21 00:30 15.81019 152.54122 32984 ft 515 kts 75°
2026-04-21 00:30 15.82832 152.61275 32979 ft 516 kts 75°
2026-04-21 00:31 15.84656 152.68484 32977 ft 516 kts 75°
2026-04-21 00:31 15.86476 152.75689 32975 ft 516 kts 75°
2026-04-21 00:32 15.88293 152.82892 32980 ft 516 kts 75°
2026-04-21 00:32 15.90110 152.90105 32981 ft 515 kts 74°
2026-04-21 00:33 15.91922 152.97307 32978 ft 515 kts 75°
2026-04-21 00:33 15.93730 153.04507 32977 ft 514 kts 75°
2026-04-21 00:34 15.95522 153.11654 32975 ft 514 kts 75°
2026-04-21 00:34 15.97321 153.18840 32979 ft 514 kts 75°
2026-04-21 00:35 15.99118 153.26028 32978 ft 513 kts 75°
2026-04-21 00:35 16.00909 153.33203 32979 ft 513 kts 75°
2026-04-21 00:36 16.02700 153.40385 32977 ft 512 kts 75°
2026-04-21 00:36 16.04477 153.47528 32977 ft 512 kts 75°
2026-04-21 00:37 16.06263 153.54712 32972 ft 512 kts 75°
2026-04-21 00:37 16.08043 153.61886 32975 ft 512 kts 75°
2026-04-21 00:38 16.09823 153.69070 32974 ft 512 kts 75°
2026-04-21 00:38 16.11599 153.76250 32975 ft 512 kts 75°
2026-04-21 00:39 16.13364 153.83397 32979 ft 513 kts 75°
2026-04-21 00:39 16.15138 153.90588 32975 ft 513 kts 75°
2026-04-21 00:40 16.16909 153.97784 32975 ft 513 kts 75°
2026-04-21 00:40 16.18675 154.04967 32976 ft 513 kts 75°
2026-04-21 00:41 16.20429 154.12109 32971 ft 513 kts 75°
2026-04-21 00:41 16.22193 154.19310 32973 ft 513 kts 75°
2026-04-21 00:42 16.23954 154.26504 32970 ft 513 kts 75°
2026-04-21 00:42 16.25713 154.33705 32970 ft 513 kts 75°
2026-04-21 00:43 16.27470 154.40906 32971 ft 513 kts 75°
2026-04-21 00:43 16.29227 154.48117 32969 ft 513 kts 75°
2026-04-21 00:44 16.30978 154.55319 32971 ft 513 kts 75°
2026-04-21 00:44 16.32715 154.62474 32969 ft 513 kts 75°
2026-04-21 00:45 16.35334 154.73279 32971 ft 513 kts 75°
2026-04-21 00:45 16.37075 154.80480 32969 ft 512 kts 75°
2026-04-21 00:46 16.38813 154.87675 32967 ft 512 kts 75°
2026-04-21 00:46 16.40547 154.94870 32967 ft 512 kts 75°
2026-04-21 00:47 16.42280 155.02068 32971 ft 512 kts 75°
2026-04-21 00:47 16.44011 155.09272 32966 ft 512 kts 75°
2026-04-21 00:48 16.45736 155.16461 32967 ft 512 kts 75°
2026-04-21 00:48 16.47450 155.23614 32967 ft 511 kts 75°
2026-04-21 00:49 16.49170 155.30809 32967 ft 512 kts 75°
2026-04-21 00:49 16.50891 155.38015 32962 ft 512 kts 75°
2026-04-21 00:50 16.52608 155.45215 32965 ft 512 kts 75°
2026-04-21 00:50 16.54315 155.52389 32965 ft 512 kts 75°
2026-04-21 00:51 16.56026 155.59589 32965 ft 512 kts 75°
2026-04-21 00:51 16.57737 155.66799 32969 ft 512 kts 76°
2026-04-21 00:52 16.59443 155.74001 32960 ft 511 kts 76°
2026-04-21 00:52 16.61145 155.81202 32959 ft 511 kts 76°
2026-04-21 00:53 16.62845 155.88401 32961 ft 511 kts 76°
2026-04-21 00:53 16.64541 155.95595 32962 ft 511 kts 76°
2026-04-21 00:54 16.66222 156.02742 32962 ft 510 kts 76°
2026-04-21 00:54 16.67912 156.09934 32961 ft 510 kts 76°
2026-04-21 00:55 16.69603 156.17144 32960 ft 510 kts 76°
2026-04-21 00:55 16.71279 156.24299 32959 ft 510 kts 76°
2026-04-21 00:56 16.72963 156.31503 32956 ft 510 kts 76°
2026-04-21 00:56 16.74644 156.38707 32953 ft 510 kts 76°
2026-04-21 00:57 16.76321 156.45902 32956 ft 510 kts 76°
2026-04-21 00:57 16.77986 156.53061 32957 ft 510 kts 76°
2026-04-21 00:58 16.79657 156.60258 32957 ft 510 kts 76°
2026-04-21 00:58 16.81326 156.67455 32953 ft 510 kts 76°
2026-04-21 00:59 16.82994 156.74662 32954 ft 510 kts 76°
2026-04-21 00:59 16.84660 156.81874 32952 ft 510 kts 76°
2026-04-21 01:00 16.86311 156.89030 32950 ft 510 kts 76°
2026-04-21 01:00 16.87970 156.96234 32958 ft 510 kts 76°
2026-04-21 01:01 16.89629 157.03450 32954 ft 510 kts 76°
2026-04-21 01:01 16.91283 157.10658 32956 ft 510 kts 76°
2026-04-21 01:02 16.92937 157.17878 32955 ft 510 kts 76°
2026-04-21 01:02 16.94584 157.25082 32954 ft 510 kts 76°
2026-04-21 01:03 16.96221 157.32250 32950 ft 509 kts 76°
2026-04-21 01:03 16.97863 157.39455 32951 ft 509 kts 76°
2026-04-21 01:04 16.99502 157.46655 32952 ft 509 kts 76°
2026-04-21 01:04 17.01139 157.53865 32951 ft 509 kts 76°
2026-04-21 01:05 17.02771 157.61063 32951 ft 509 kts 76°
2026-04-21 01:05 17.04391 157.68220 32949 ft 509 kts 76°
2026-04-21 01:06 17.06018 157.75417 32949 ft 509 kts 76°
2026-04-21 01:06 17.07643 157.82623 32950 ft 509 kts 76°
2026-04-21 01:07 17.09265 157.89830 32950 ft 509 kts 76°
2026-04-21 01:07 17.10886 157.97049 32945 ft 509 kts 76°
2026-04-21 01:08 17.12503 158.04265 32947 ft 509 kts 77°
2026-04-21 01:08 17.14106 158.11428 32949 ft 509 kts 77°
2026-04-21 01:09 17.15717 158.18638 32948 ft 509 kts 77°
2026-04-21 01:09 17.17325 158.25849 32948 ft 509 kts 77°
2026-04-21 01:10 17.18929 158.33054 32946 ft 509 kts 77°
2026-04-21 01:10 17.20523 158.40226 32950 ft 508 kts 77°
2026-04-21 01:11 17.22124 158.47443 32947 ft 508 kts 77°
2026-04-21 01:11 17.23462 158.53483 32948 ft 508 kts 77°
2026-04-21 01:12 17.25049 158.60663 32947 ft 509 kts 77°
2026-04-21 01:12 17.26642 158.67876 32944 ft 509 kts 77°
2026-04-21 01:13 17.28233 158.75099 32947 ft 509 kts 77°
2026-04-21 01:13 17.29823 158.82331 32947 ft 510 kts 77°
2026-04-21 01:14 17.31412 158.89565 32944 ft 510 kts 77°
2026-04-21 01:14 17.32988 158.96759 32943 ft 510 kts 77°
2026-04-21 01:15 17.34572 159.04001 32942 ft 510 kts 77°
2026-04-21 01:15 17.36154 159.11244 32940 ft 510 kts 77°
2026-04-21 01:16 17.37736 159.18503 32944 ft 510 kts 77°
2026-04-21 01:16 17.39302 159.25702 32942 ft 510 kts 77°
2026-04-21 01:17 17.40876 159.32951 32938 ft 510 kts 77°
2026-04-21 01:17 17.42448 159.40203 32941 ft 510 kts 77°
2026-04-21 01:18 17.44007 159.47408 32942 ft 510 kts 77°
2026-04-21 01:18 17.45571 159.54651 32941 ft 509 kts 77°
2026-04-21 01:19 17.47132 159.61895 32939 ft 509 kts 77°
2026-04-21 01:19 17.48680 159.69088 32937 ft 509 kts 77°
2026-04-21 01:20 17.50240 159.76352 32933 ft 509 kts 77°
2026-04-21 01:20 17.51782 159.83543 32936 ft 509 kts 77°
2026-04-21 01:21 17.53331 159.90786 32935 ft 509 kts 77°
2026-04-21 01:21 17.54877 159.98025 32937 ft 509 kts 77°
2026-04-21 01:22 17.56421 160.05266 32933 ft 509 kts 77°
2026-04-21 01:22 17.57952 160.12463 32933 ft 509 kts 77°
2026-04-21 01:23 17.59500 160.19753 32936 ft 509 kts 77°
2026-04-21 01:23 17.61026 160.26952 32932 ft 509 kts 77°
2026-04-21 01:24 17.62560 160.34202 32936 ft 509 kts 77°
2026-04-21 01:24 17.64093 160.41461 32936 ft 509 kts 77°
2026-04-21 01:25 17.65623 160.48720 32934 ft 509 kts 77°
2026-04-21 01:25 17.67142 160.55941 32935 ft 509 kts 77°
2026-04-21 01:26 17.68667 160.63206 32937 ft 509 kts 77°
2026-04-21 01:26 17.70188 160.70462 32935 ft 510 kts 77°
2026-04-21 01:27 17.71699 160.77689 32933 ft 510 kts 77°
2026-04-21 01:27 17.73216 160.84955 32936 ft 510 kts 77°
2026-04-21 01:28 17.74731 160.92224 32936 ft 510 kts 77°
2026-04-21 01:28 17.76244 160.99503 32935 ft 510 kts 77°
2026-04-21 01:29 17.77747 161.06745 32935 ft 510 kts 78°
2026-04-21 01:29 17.79256 161.14027 32934 ft 510 kts 78°
2026-04-21 01:30 17.80761 161.21307 32933 ft 510 kts 78°
2026-04-21 01:30 17.82265 161.28598 32928 ft 510 kts 78°
2026-04-21 01:31 17.83759 161.35851 32933 ft 511 kts 78°
2026-04-21 01:31 17.85259 161.43150 32927 ft 511 kts 78°
2026-04-21 01:32 17.86756 161.50446 32932 ft 511 kts 78°
2026-04-21 01:32 17.88249 161.57743 32940 ft 511 kts 78°
2026-04-21 01:33 17.89744 161.65061 32930 ft 511 kts 78°
2026-04-21 01:33 17.91224 161.72319 32928 ft 512 kts 78°
2026-04-21 01:34 17.92711 161.79626 32934 ft 512 kts 78°
2026-04-21 01:34 17.94199 161.86950 32932 ft 512 kts 78°
2026-04-21 01:35 17.95681 161.94262 32930 ft 512 kts 78°
2026-04-21 01:35 17.97155 162.01549 32928 ft 512 kts 78°
2026-04-21 01:36 17.98631 162.08862 32933 ft 512 kts 78°
2026-04-21 01:36 18.00107 162.16189 32927 ft 512 kts 78°
2026-04-21 01:37 18.01585 162.23543 33253 ft 515 kts 78°
2026-04-21 01:37 18.02322 162.27215 33635 ft 513 kts 78°
2026-04-21 01:37 18.03056 162.30875 34008 ft 510 kts 78°
2026-04-21 01:38 18.03778 162.34477 34329 ft 508 kts 78°
2026-04-21 01:38 18.04504 162.38106 34643 ft 507 kts 78°
2026-04-21 01:38 18.05230 162.41734 34851 ft 507 kts 78°
2026-04-21 01:38 18.05955 162.45369 34883 ft 509 kts 78°
2026-04-21 01:39 18.07407 162.52647 34925 ft 507 kts 78°
2026-04-21 01:39 18.08849 162.59893 34930 ft 505 kts 78°
2026-04-21 01:40 18.10283 162.67112 34918 ft 504 kts 78°
2026-04-21 01:40 18.11702 162.74275 34932 ft 504 kts 78°
2026-04-21 01:41 18.13130 162.81495 34931 ft 505 kts 78°
2026-04-21 01:41 18.14558 162.88731 34922 ft 506 kts 78°
2026-04-21 01:42 18.15988 162.95988 34931 ft 507 kts 78°
2026-04-21 01:42 18.17418 163.03264 34933 ft 508 kts 78°
2026-04-21 01:43 18.18845 163.10536 34918 ft 508 kts 78°
2026-04-21 01:43 18.20262 163.17778 34919 ft 508 kts 78°
2026-04-21 01:44 18.21684 163.25057 34920 ft 508 kts 78°
2026-04-21 01:44 18.23104 163.32341 34931 ft 508 kts 78°
2026-04-21 01:45 18.24519 163.39615 34920 ft 508 kts 78°
2026-04-21 01:45 18.25933 163.46900 34921 ft 507 kts 78°
2026-04-21 01:46 18.27344 163.54179 34926 ft 507 kts 78°
2026-04-21 01:46 18.28741 163.61410 34927 ft 507 kts 78°
2026-04-21 01:47 18.30144 163.68683 34919 ft 507 kts 78°
2026-04-21 01:47 18.31547 163.75973 34924 ft 508 kts 78°
2026-04-21 01:48 18.32946 163.83255 34918 ft 508 kts 78°
2026-04-21 01:48 18.34344 163.90550 34918 ft 508 kts 78°
2026-04-21 01:49 18.35740 163.97845 34918 ft 508 kts 78°
2026-04-21 01:49 18.37133 164.05149 34920 ft 509 kts 78°
2026-04-21 01:50 18.38516 164.12409 34915 ft 509 kts 78°
2026-04-21 01:50 18.39905 164.19718 34912 ft 509 kts 78°
2026-04-21 01:51 18.41290 164.27026 34916 ft 509 kts 78°
2026-04-21 01:51 18.42674 164.34337 34915 ft 509 kts 78°
2026-04-21 01:52 18.44743 164.45307 34917 ft 508 kts 78°
2026-04-21 01:53 18.46110 164.52572 34913 ft 508 kts 78°
2026-04-21 01:53 18.47482 164.59878 34916 ft 508 kts 79°
2026-04-21 01:54 18.48851 164.67186 34919 ft 508 kts 79°
2026-04-21 01:54 18.50219 164.74505 34917 ft 509 kts 79°
2026-04-21 01:55 18.51587 164.81837 34915 ft 509 kts 79°
2026-04-21 01:55 18.52950 164.89165 34912 ft 509 kts 79°
2026-04-21 01:56 18.54310 164.96486 34912 ft 509 kts 79°
2026-04-21 01:56 18.55661 165.03777 34912 ft 509 kts 79°
2026-04-21 01:57 18.57015 165.11104 34915 ft 509 kts 79°
2026-04-21 01:57 18.58367 165.18435 34912 ft 509 kts 79°
2026-04-21 01:58 18.59716 165.25763 34911 ft 509 kts 79°
2026-04-21 01:58 18.61063 165.33101 34912 ft 509 kts 79°
2026-04-21 01:59 18.62179 165.39191 34911 ft 509 kts 79°
2026-04-21 01:59 18.63520 165.46530 34911 ft 509 kts 79°
2026-04-21 02:00 18.64859 165.53869 34911 ft 509 kts 79°
2026-04-21 02:00 18.66194 165.61203 34917 ft 509 kts 79°
2026-04-21 02:01 18.67527 165.68545 34917 ft 509 kts 79°
2026-04-21 02:01 18.68858 165.75892 34913 ft 509 kts 79°
2026-04-21 02:02 18.70185 165.83232 34911 ft 510 kts 79°
2026-04-21 02:02 18.71503 165.90538 34912 ft 510 kts 79°
2026-04-21 02:03 18.72825 165.97886 34912 ft 510 kts 79°
2026-04-21 02:03 18.74144 166.05237 34909 ft 510 kts 79°
2026-04-21 02:04 18.75462 166.12594 34909 ft 510 kts 79°
2026-04-21 02:04 18.76775 166.19945 34909 ft 510 kts 79°
2026-04-21 02:05 18.78077 166.27252 34911 ft 510 kts 79°
2026-04-21 02:05 18.79386 166.34612 34909 ft 510 kts 79°
2026-04-21 02:06 18.80692 166.41971 34908 ft 510 kts 79°
2026-04-21 02:06 18.81995 166.49335 34910 ft 510 kts 79°
2026-04-21 02:07 18.83295 166.56698 34912 ft 510 kts 79°
2026-04-21 02:07 18.84591 166.64057 34910 ft 510 kts 79°
2026-04-21 02:08 18.85886 166.71425 34911 ft 510 kts 79°
2026-04-21 02:08 18.87162 166.78799 34909 ft 510 kts 79°
2026-04-21 02:09 18.88421 166.86126 34910 ft 510 kts 79°
2026-04-21 02:09 18.89688 166.93512 34910 ft 511 kts 80°
2026-04-21 02:10 18.90954 167.00899 34910 ft 511 kts 80°
2026-04-21 02:10 18.92217 167.08283 34910 ft 511 kts 80°
2026-04-21 02:11 18.93478 167.15675 34911 ft 511 kts 80°
2026-04-21 02:11 18.94730 167.23031 34912 ft 511 kts 80°
2026-04-21 02:12 18.95985 167.30422 34905 ft 511 kts 80°
2026-04-21 02:12 18.97236 167.37815 34908 ft 511 kts 80°
2026-04-21 02:13 18.98489 167.45230 34908 ft 511 kts 80°
2026-04-21 02:13 18.99729 167.52587 34907 ft 511 kts 80°
2026-04-21 02:14 19.00973 167.59989 34912 ft 511 kts 80°
2026-04-21 02:14 19.02216 167.67408 34910 ft 512 kts 80°
2026-04-21 02:15 19.03448 167.74771 34910 ft 512 kts 80°
2026-04-21 02:15 19.04685 167.82191 34909 ft 512 kts 80°
2026-04-21 02:16 19.05917 167.89597 34916 ft 512 kts 80°
2026-04-21 02:16 19.07149 167.97018 34912 ft 512 kts 80°
2026-04-21 02:17 19.08378 168.04442 34914 ft 513 kts 80°
2026-04-21 02:17 19.09606 168.11881 34913 ft 514 kts 80°
2026-04-21 02:18 19.10832 168.19324 34909 ft 514 kts 80°
2026-04-21 02:18 19.12048 168.26730 34912 ft 514 kts 80°
2026-04-21 02:19 19.13269 168.34182 34914 ft 514 kts 80°
2026-04-21 02:19 19.14490 168.41657 34911 ft 514 kts 80°
2026-04-21 02:20 19.15707 168.49125 34910 ft 514 kts 80°
2026-04-21 02:20 19.16913 168.56540 34909 ft 514 kts 80°
2026-04-21 02:21 19.18126 168.64024 34913 ft 514 kts 80°
2026-04-21 02:21 19.19334 168.71495 34910 ft 514 kts 80°
2026-04-21 02:22 19.20529 168.78909 34913 ft 514 kts 80°
2026-04-21 02:22 19.21731 168.86378 34912 ft 514 kts 81°
2026-04-21 02:23 19.22926 168.93834 34909 ft 514 kts 81°
2026-04-21 02:23 19.24122 169.01304 34915 ft 514 kts 81°
2026-04-21 02:24 19.25313 169.08770 34916 ft 514 kts 81°
2026-04-21 02:24 19.26493 169.16190 34915 ft 514 kts 81°
2026-04-21 02:25 19.27677 169.23651 34914 ft 514 kts 81°
2026-04-21 02:25 19.28859 169.31119 34914 ft 514 kts 81°
2026-04-21 02:26 19.30039 169.38593 34918 ft 514 kts 81°
2026-04-21 02:26 19.31214 169.46061 34922 ft 514 kts 81°
2026-04-21 02:27 19.32387 169.53532 34915 ft 514 kts 81°
2026-04-21 02:27 19.33550 169.60959 34918 ft 514 kts 81°
2026-04-21 02:28 19.34717 169.68434 34914 ft 514 kts 81°
2026-04-21 02:28 19.35880 169.75903 34918 ft 514 kts 81°
2026-04-21 02:29 19.37041 169.83382 34917 ft 514 kts 81°
2026-04-21 02:29 19.38199 169.90860 34922 ft 514 kts 81°
2026-04-21 02:30 19.39353 169.98336 34918 ft 514 kts 81°
2026-04-21 02:30 19.40497 170.05767 34920 ft 514 kts 81°
2026-04-21 02:31 19.41645 170.13247 34919 ft 514 kts 81°
2026-04-21 02:31 19.42791 170.20732 34921 ft 514 kts 81°
2026-04-21 02:32 19.43933 170.28211 34920 ft 514 kts 81°
2026-04-21 02:32 19.45063 170.35635 34920 ft 513 kts 81°
2026-04-21 02:33 19.46198 170.43109 34919 ft 513 kts 81°
2026-04-21 02:33 19.47332 170.50598 34920 ft 513 kts 81°
2026-04-21 02:34 19.48453 170.58023 34925 ft 513 kts 81°
2026-04-21 02:34 19.49577 170.65489 34922 ft 513 kts 81°
2026-04-21 02:35 19.50699 170.72963 34922 ft 512 kts 81°
2026-04-21 02:35 19.51815 170.80423 34925 ft 512 kts 81°
2026-04-21 02:36 19.52923 170.87847 34924 ft 512 kts 81°
2026-04-21 02:36 19.54034 170.95312 34923 ft 512 kts 81°
2026-04-21 02:37 19.55140 171.02771 34920 ft 512 kts 81°
2026-04-21 02:37 19.56245 171.10236 34920 ft 512 kts 81°
2026-04-21 02:38 19.57347 171.17711 34924 ft 512 kts 81°
2026-04-21 02:38 19.58445 171.25171 34923 ft 512 kts 81°
2026-04-21 02:39 19.59533 171.32592 34927 ft 512 kts 81°
2026-04-21 02:39 19.60625 171.40060 34924 ft 512 kts 81°
2026-04-21 02:40 19.61715 171.47539 34924 ft 512 kts 81°
2026-04-21 02:40 19.62802 171.55015 34924 ft 512 kts 81°
2026-04-21 02:41 19.63885 171.62486 34923 ft 512 kts 81°
2026-04-21 02:41 19.64959 171.69922 34923 ft 512 kts 81°
2026-04-21 02:42 19.66036 171.77396 34921 ft 512 kts 81°
2026-04-21 02:42 19.67110 171.84873 34921 ft 512 kts 81°
2026-04-21 02:43 19.68182 171.92360 34923 ft 512 kts 81°
2026-04-21 02:43 19.69243 171.99798 34923 ft 512 kts 81°
2026-04-21 02:44 19.70309 172.07288 34922 ft 512 kts 81°
2026-04-21 02:44 19.71370 172.14763 34921 ft 512 kts 81°
2026-04-21 02:45 19.72430 172.22252 34921 ft 512 kts 81°
2026-04-21 02:45 19.73486 172.29743 34925 ft 512 kts 81°
2026-04-21 02:46 19.74534 172.37193 34925 ft 512 kts 81°
2026-04-21 02:46 19.75583 172.44682 34925 ft 513 kts 81°
2026-04-21 02:47 19.76453 172.50906 34927 ft 512 kts 81°
2026-04-21 02:47 19.77499 172.58410 34925 ft 512 kts 81°
2026-04-21 02:48 19.78540 172.65905 34929 ft 512 kts 81°
2026-04-21 02:48 19.79571 172.73345 34925 ft 512 kts 81°
2026-04-21 02:49 19.80606 172.80845 34927 ft 512 kts 81°
2026-04-21 02:49 19.81636 172.88330 34929 ft 512 kts 81°
2026-04-21 02:50 19.82665 172.95831 34926 ft 512 kts 82°
2026-04-21 02:50 19.83684 173.03282 34925 ft 512 kts 82°
2026-04-21 02:51 19.84705 173.10772 34927 ft 512 kts 82°
2026-04-21 02:51 19.85724 173.18269 34931 ft 512 kts 82°
2026-04-21 02:52 19.86738 173.25754 34926 ft 512 kts 82°
2026-04-21 02:52 19.87748 173.33249 34926 ft 512 kts 82°
2026-04-21 02:53 19.88718 173.40734 34928 ft 512 kts 82°
2026-04-21 02:53 19.89672 173.48241 34925 ft 512 kts 82°
2026-04-21 02:54 19.90619 173.55689 34925 ft 512 kts 82°
2026-04-21 02:54 19.91574 173.63189 34926 ft 512 kts 82°
2026-04-21 02:55 19.92527 173.70691 34926 ft 512 kts 82°
2026-04-21 02:55 19.93478 173.78195 34927 ft 512 kts 82°
2026-04-21 02:56 19.94426 173.85709 34928 ft 512 kts 82°
2026-04-21 02:56 19.95835 173.96929 34929 ft 513 kts 83°
2026-04-21 02:57 19.96776 174.04449 34928 ft 513 kts 83°
2026-04-21 02:57 19.97715 174.11987 34929 ft 514 kts 83°
2026-04-21 02:58 19.98651 174.19525 34929 ft 514 kts 83°
2026-04-21 02:58 19.99584 174.27062 34932 ft 514 kts 83°
2026-04-21 02:59 20.00509 174.34567 34927 ft 515 kts 82°
2026-04-21 02:59 20.01439 174.42133 34932 ft 516 kts 82°
2026-04-21 03:00 20.02368 174.49722 34935 ft 517 kts 83°
2026-04-21 03:00 20.03295 174.57322 34935 ft 518 kts 83°
2026-04-21 03:01 20.04219 174.64919 34932 ft 518 kts 83°
2026-04-21 03:01 20.05134 174.72485 34926 ft 519 kts 82°
2026-04-21 03:02 20.06054 174.80101 34939 ft 519 kts 82°
2026-04-21 03:02 20.06968 174.87707 34936 ft 517 kts 83°
2026-04-21 03:03 20.07876 174.95281 34925 ft 515 kts 83°
2026-04-21 03:03 20.08772 175.02790 34926 ft 513 kts 83°
2026-04-21 03:04 20.09668 175.10327 34928 ft 513 kts 82°
2026-04-21 03:04 20.10560 175.17859 34937 ft 513 kts 82°
2026-04-21 03:05 20.11451 175.25406 34936 ft 515 kts 82°
2026-04-21 03:05 20.12341 175.32973 34932 ft 516 kts 82°
2026-04-21 03:06 20.13231 175.40570 34934 ft 517 kts 83°
2026-04-21 03:06 20.14118 175.48168 34935 ft 518 kts 82°
2026-04-21 03:07 20.14998 175.55735 34930 ft 519 kts 82°
2026-04-21 03:07 20.15882 175.63367 34932 ft 519 kts 82°
2026-04-21 03:08 20.16761 175.70989 34934 ft 519 kts 82°
2026-04-21 03:08 20.17637 175.78606 34936 ft 518 kts 82°
2026-04-21 03:09 20.18509 175.86228 34934 ft 518 kts 82°
2026-04-21 03:09 20.19377 175.93839 34931 ft 517 kts 82°
2026-04-21 03:10 20.20242 176.01448 34934 ft 517 kts 82°
2026-04-21 03:10 20.21102 176.09047 34939 ft 517 kts 82°
2026-04-21 03:11 20.21955 176.16611 34936 ft 516 kts 82°
2026-04-21 03:11 20.22807 176.24208 34938 ft 516 kts 82°
2026-04-21 03:12 20.23658 176.31808 34936 ft 516 kts 82°
2026-04-21 03:12 20.24503 176.39401 34933 ft 516 kts 82°
2026-04-21 03:13 20.25339 176.46933 34940 ft 515 kts 82°
2026-04-21 03:13 20.26177 176.54516 34938 ft 515 kts 82°
2026-04-21 03:14 20.27014 176.62113 34940 ft 515 kts 82°
2026-04-21 03:14 20.27845 176.69697 34938 ft 515 kts 83°
2026-04-21 03:15 20.28668 176.77235 34935 ft 516 kts 83°
2026-04-21 03:15 20.29494 176.84827 34941 ft 516 kts 83°
2026-04-21 03:16 20.30318 176.92432 34941 ft 516 kts 83°
2026-04-21 03:16 20.31137 177.00027 34940 ft 516 kts 83°
2026-04-21 03:17 20.31953 177.07628 34938 ft 515 kts 83°
2026-04-21 03:17 20.32765 177.15212 34940 ft 515 kts 83°
2026-04-21 03:18 20.33573 177.22800 34936 ft 515 kts 83°
2026-04-21 03:18 20.34374 177.30346 34940 ft 514 kts 83°
2026-04-21 03:19 20.35176 177.37935 34939 ft 515 kts 83°
2026-04-21 03:19 20.35973 177.45515 34946 ft 515 kts 83°
2026-04-21 03:20 20.36768 177.53102 34941 ft 515 kts 83°
2026-04-21 03:20 20.37560 177.60695 34939 ft 515 kts 83°
2026-04-21 03:21 20.38350 177.68293 34948 ft 516 kts 83°
2026-04-21 03:21 20.39131 177.75851 34944 ft 516 kts 83°
2026-04-21 03:22 20.39916 177.83469 34953 ft 517 kts 83°
2026-04-21 03:22 20.40698 177.91088 34944 ft 517 kts 83°
2026-04-21 03:23 20.41476 177.98713 34947 ft 517 kts 83°
2026-04-21 03:23 20.42251 178.06338 34944 ft 517 kts 83°
2026-04-21 03:24 20.43019 178.13926 34950 ft 517 kts 83°
2026-04-21 03:24 20.43787 178.21543 34951 ft 516 kts 83°
2026-04-21 03:25 20.44549 178.29144 34949 ft 515 kts 83°
2026-04-21 03:25 20.45309 178.36745 34946 ft 514 kts 83°
2026-04-21 03:26 20.46062 178.44322 34952 ft 514 kts 83°
2026-04-21 03:26 20.46814 178.51912 34964 ft 513 kts 83°
2026-04-21 03:27 20.47557 178.59457 34956 ft 513 kts 83°
2026-04-21 03:27 20.48301 178.67031 34951 ft 513 kts 83°
2026-04-21 03:28 20.49040 178.74602 34951 ft 513 kts 83°
2026-04-21 03:28 20.49773 178.82138 34948 ft 513 kts 83°
2026-04-21 03:29 20.50506 178.89714 34952 ft 514 kts 83°
2026-04-21 03:29 20.51238 178.97311 34959 ft 514 kts 83°
2026-04-21 03:30 20.51967 179.04916 34957 ft 515 kts 83°
2026-04-21 03:30 20.52690 179.12483 34955 ft 515 kts 83°
2026-04-21 03:31 20.53414 179.20107 34959 ft 516 kts 83°
2026-04-21 03:31 20.54136 179.27737 34958 ft 516 kts 83°
2026-04-21 03:32 20.54854 179.35367 34959 ft 517 kts 83°
2026-04-21 03:32 20.55448 179.41711 34961 ft 517 kts 83°
2026-04-21 03:33 20.56278 179.50605 34958 ft 518 kts 83°
2026-04-21 03:33 20.56873 179.57018 34966 ft 518 kts 83°
2026-04-21 03:34 20.57576 179.64622 34953 ft 518 kts 83°
2026-04-21 03:34 20.58279 179.72270 34954 ft 518 kts 83°
2026-04-21 03:35 20.58980 179.79929 34952 ft 518 kts 83°
2026-04-21 03:35 20.59677 179.87581 34960 ft 517 kts 83°
2026-04-21 03:36 20.60364 179.95169 34955 ft 517 kts 83°
2026-04-21 03:36 20.61049 -179.97189 34967 ft 517 kts 84°
2026-04-21 03:37 20.61691 -179.89550 34960 ft 516 kts 84°
2026-04-21 03:37 20.62319 -179.81899 34962 ft 516 kts 84°
2026-04-21 03:38 20.62942 -179.74312 34955 ft 515 kts 84°
2026-04-21 03:38 20.63570 -179.66679 34968 ft 515 kts 84°
2026-04-21 03:39 20.64197 -179.59045 34956 ft 515 kts 84°
2026-04-21 03:39 20.64814 -179.51474 34956 ft 515 kts 84°
2026-04-21 03:40 20.65432 -179.43852 34966 ft 515 kts 84°
2026-04-21 03:40 20.66047 -179.36232 34973 ft 515 kts 84°
2026-04-21 03:41 20.66659 -179.28589 34969 ft 515 kts 84°
2026-04-21 03:41 20.67268 -179.20953 34977 ft 516 kts 84°
2026-04-21 03:42 20.67870 -179.13366 34962 ft 516 kts 84°
2026-04-21 03:42 20.68471 -179.05735 34962 ft 516 kts 84°
2026-04-21 03:43 20.69070 -178.98106 34971 ft 516 kts 84°
2026-04-21 03:43 20.69665 -178.90473 34965 ft 515 kts 84°
2026-04-21 03:44 20.70256 -178.82841 34964 ft 515 kts 84°
2026-04-21 03:44 20.70844 -178.75203 34973 ft 516 kts 84°
2026-04-21 03:45 20.71430 -178.67558 34977 ft 516 kts 84°
2026-04-21 03:45 20.72012 -178.59918 34964 ft 516 kts 84°
2026-04-21 03:46 20.72592 -178.52266 34964 ft 516 kts 84°
2026-04-21 03:46 20.73163 -178.44674 34965 ft 517 kts 84°
2026-04-21 03:47 20.73736 -178.37015 34974 ft 517 kts 84°
2026-04-21 03:47 20.74307 -178.29334 34972 ft 518 kts 84°
2026-04-21 03:48 20.74875 -178.21661 34970 ft 518 kts 84°
2026-04-21 03:48 20.75440 -178.13972 34977 ft 518 kts 84°
2026-04-21 03:49 20.76001 -178.06291 34970 ft 519 kts 84°
2026-04-21 03:49 20.76554 -177.98660 34974 ft 519 kts 84°
2026-04-21 03:50 20.77109 -177.90974 34979 ft 519 kts 84°
2026-04-21 03:50 20.77660 -177.83280 34968 ft 519 kts 84°
2026-04-21 03:51 20.78208 -177.75585 34974 ft 519 kts 84°
2026-04-21 03:51 20.78753 -177.67894 34983 ft 519 kts 84°
2026-04-21 03:52 20.79294 -177.60204 34971 ft 519 kts 84°
2026-04-21 03:52 20.79827 -177.52566 34976 ft 519 kts 84°
2026-04-21 03:53 20.80362 -177.44866 34979 ft 520 kts 85°
2026-04-21 03:53 20.80894 -177.37150 34984 ft 521 kts 85°
2026-04-21 03:54 20.81424 -177.29419 34999 ft 521 kts 84°
2026-04-21 03:54 20.81948 -177.21704 34976 ft 520 kts 84°
2026-04-21 03:55 20.82469 -177.14003 34979 ft 519 kts 84°
2026-04-21 03:55 20.82986 -177.06319 34979 ft 518 kts 84°
2026-04-21 03:56 20.83498 -176.98643 34976 ft 517 kts 84°
2026-04-21 03:56 20.84004 -176.91005 34984 ft 517 kts 84°
2026-04-21 03:57 20.84508 -176.83347 34984 ft 516 kts 84°
2026-04-21 03:57 20.85008 -176.75693 34987 ft 516 kts 84°
2026-04-21 03:58 20.85505 -176.68042 34985 ft 516 kts 84°
2026-04-21 03:58 20.85998 -176.60392 34988 ft 516 kts 84°
2026-04-21 03:59 20.86489 -176.52738 34990 ft 516 kts 84°
2026-04-21 04:00 20.87217 -176.41257 34987 ft 516 kts 84°
2026-04-21 04:00 20.87697 -176.33631 34993 ft 516 kts 84°
2026-04-21 04:01 20.88176 -176.25971 34993 ft 516 kts 84°
2026-04-21 04:01 20.88651 -176.18303 34993 ft 516 kts 84°
2026-04-21 04:02 20.89118 -176.10708 34990 ft 514 kts 84°
2026-04-21 04:02 20.89582 -176.03105 34982 ft 511 kts 84°
2026-04-21 04:03 20.90042 -175.95530 34984 ft 509 kts 84°
2026-04-21 04:03 20.90496 -175.87992 34990 ft 507 kts 84°
2026-04-21 04:04 20.90948 -175.80445 34988 ft 507 kts 85°
2026-04-21 04:04 20.91392 -175.72963 34991 ft 508 kts 85°
2026-04-21 04:05 20.91838 -175.65399 34991 ft 509 kts 85°
2026-04-21 04:05 20.92279 -175.57844 34991 ft 509 kts 85°
2026-04-21 04:06 20.92719 -175.50270 34990 ft 510 kts 85°
2026-04-21 04:06 20.93155 -175.42685 34990 ft 511 kts 85°
2026-04-21 04:07 20.93589 -175.35098 34988 ft 512 kts 85°
2026-04-21 04:07 20.94020 -175.27488 34990 ft 512 kts 85°
2026-04-21 04:08 20.94448 -175.19866 34990 ft 513 kts 85°
2026-04-21 04:08 20.94873 -175.12244 34992 ft 513 kts 85°
2026-04-21 04:09 20.95293 -175.04661 34989 ft 513 kts 85°
2026-04-21 04:09 20.95713 -174.97024 34991 ft 516 kts 85°
2026-04-21 04:10 20.96132 -174.89325 34999 ft 519 kts 85°
2026-04-21 04:10 20.96549 -174.81603 35000 ft 521 kts 85°
2026-04-21 04:11 20.96964 -174.73858 34993 ft 522 kts 85°
2026-04-21 04:11 20.97373 -174.66141 34999 ft 522 kts 85°
2026-04-21 04:12 20.97781 -174.58374 34990 ft 522 kts 85°
2026-04-21 04:12 20.98186 -174.50610 34991 ft 521 kts 85°
2026-04-21 04:13 20.98585 -174.42897 34991 ft 521 kts 85°
2026-04-21 04:13 20.98982 -174.35152 34994 ft 520 kts 85°
2026-04-21 04:14 20.99372 -174.27470 35004 ft 520 kts 85°
2026-04-21 04:14 20.99761 -174.19748 34996 ft 519 kts 85°
2026-04-21 04:15 21.00146 -174.12041 34991 ft 519 kts 85°
2026-04-21 04:15 21.00527 -174.04332 34995 ft 518 kts 85°
2026-04-21 04:16 21.00906 -173.96608 34995 ft 518 kts 85°
2026-04-21 04:16 21.01280 -173.88902 34999 ft 518 kts 85°
2026-04-21 04:17 21.01650 -173.81207 34995 ft 518 kts 85°
2026-04-21 04:17 21.02015 -173.73541 34994 ft 518 kts 85°
2026-04-21 04:18 21.02379 -173.65839 35000 ft 518 kts 85°
2026-04-21 04:18 21.02740 -173.58123 34999 ft 519 kts 85°
2026-04-21 04:19 21.03098 -173.50372 35010 ft 520 kts 85°
2026-04-21 04:19 21.03451 -173.42674 34995 ft 520 kts 85°
2026-04-21 04:20 21.03802 -173.34950 34997 ft 519 kts 85°
2026-04-21 04:20 21.04090 -173.28531 34997 ft 518 kts 85°
2026-04-21 04:21 21.04433 -173.20828 34992 ft 517 kts 85°
2026-04-21 04:21 21.04773 -173.13129 35000 ft 516 kts 85°
2026-04-21 04:22 21.05106 -173.05491 34994 ft 516 kts 85°
2026-04-21 04:22 21.05437 -172.97824 34993 ft 515 kts 85°
2026-04-21 04:23 21.05764 -172.90180 34994 ft 514 kts 85°
2026-04-21 04:23 21.06088 -172.82520 34994 ft 514 kts 85°
2026-04-21 04:24 21.06408 -172.74863 35007 ft 513 kts 85°
2026-04-21 04:24 21.06723 -172.67243 34991 ft 512 kts 85°
2026-04-21 04:25 21.07033 -172.59678 34993 ft 510 kts 85°
2026-04-21 04:25 21.07340 -172.52104 34996 ft 509 kts 85°
2026-04-21 04:26 21.07643 -172.44546 34997 ft 508 kts 85°
2026-04-21 04:26 21.07943 -172.36983 34993 ft 508 kts 85°
2026-04-21 04:27 21.08239 -172.29418 35000 ft 508 kts 85°
2026-04-21 04:27 21.08532 -172.21844 34995 ft 509 kts 85°
2026-04-21 04:28 21.08821 -172.14312 34995 ft 510 kts 85°
2026-04-21 04:28 21.09108 -172.06719 34995 ft 510 kts 85°
2026-04-21 04:29 21.09393 -171.99102 35000 ft 511 kts 85°
2026-04-21 04:29 21.09644 -171.91493 34998 ft 511 kts 86°
2026-04-21 04:30 21.09864 -171.83926 35000 ft 511 kts 86°
2026-04-21 04:30 21.10082 -171.76306 35001 ft 511 kts 86°
2026-04-21 04:31 21.10303 -171.68683 34997 ft 511 kts 86°
2026-04-21 04:31 21.10522 -171.61076 35001 ft 511 kts 85°
2026-04-21 04:32 21.10738 -171.53480 34996 ft 510 kts 85°
2026-04-21 04:32 21.10950 -171.45882 34993 ft 510 kts 85°
2026-04-21 04:33 21.11157 -171.38337 34996 ft 509 kts 85°
2026-04-21 04:33 21.11362 -171.30747 34997 ft 509 kts 85°
2026-04-21 04:34 21.11563 -171.23160 35000 ft 509 kts 85°
2026-04-21 04:34 21.11760 -171.15616 34997 ft 508 kts 85°
2026-04-21 04:35 21.11955 -171.08042 34998 ft 508 kts 85°
2026-04-21 04:35 21.12146 -171.00467 34996 ft 508 kts 85°
2026-04-21 04:36 21.12334 -170.92893 34994 ft 508 kts 85°
2026-04-21 04:36 21.12516 -170.85380 35002 ft 508 kts 85°
2026-04-21 04:37 21.12697 -170.77802 34995 ft 508 kts 85°
2026-04-21 04:37 21.12875 -170.70233 34994 ft 508 kts 85°
2026-04-21 04:38 21.13049 -170.62664 34996 ft 507 kts 85°
2026-04-21 04:38 21.13218 -170.55161 34994 ft 507 kts 85°
2026-04-21 04:39 21.13385 -170.47604 35000 ft 507 kts 85°
2026-04-21 04:39 21.13549 -170.40039 34996 ft 507 kts 85°
2026-04-21 04:40 21.13710 -170.32470 34995 ft 507 kts 85°
2026-04-21 04:40 21.13867 -170.24910 34998 ft 507 kts 85°
2026-04-21 04:41 21.14020 -170.17411 34999 ft 507 kts 85°
2026-04-21 04:41 21.14170 -170.09859 34998 ft 507 kts 85°
2026-04-21 04:42 21.14317 -170.02310 34999 ft 506 kts 85°
2026-04-21 04:42 21.14460 -169.94768 34996 ft 506 kts 85°
2026-04-21 04:43 21.14600 -169.87216 34992 ft 506 kts 85°
2026-04-21 04:43 21.14737 -169.79687 34994 ft 506 kts 85°
2026-04-21 04:44 21.14870 -169.72148 34996 ft 506 kts 85°
2026-04-21 04:44 21.14999 -169.64662 34993 ft 505 kts 85°
2026-04-21 04:45 21.15126 -169.57122 34996 ft 506 kts 85°
2026-04-21 04:45 21.15250 -169.49579 34995 ft 507 kts 85°
2026-04-21 04:46 21.15370 -169.42023 35005 ft 508 kts 85°
2026-04-21 04:46 21.15487 -169.34460 35000 ft 508 kts 85°
2026-04-21 04:47 21.15601 -169.26893 34996 ft 508 kts 85°
2026-04-21 04:47 21.15711 -169.19325 34997 ft 508 kts 85°
2026-04-21 04:48 21.15818 -169.11765 34997 ft 507 kts 85°
2026-04-21 04:48 21.15920 -169.04252 35001 ft 507 kts 85°
2026-04-21 04:49 21.16020 -168.96697 34997 ft 506 kts 85°
2026-04-21 04:49 21.16117 -168.89163 34996 ft 505 kts 85°
2026-04-21 04:50 21.16210 -168.81633 34997 ft 505 kts 85°
2026-04-21 04:50 21.16299 -168.74153 34997 ft 504 kts 85°
2026-04-21 04:51 21.16386 -168.66627 35008 ft 504 kts 85°
2026-04-21 04:51 21.16469 -168.59110 35001 ft 504 kts 85°
2026-04-21 04:52 21.16548 -168.51592 35003 ft 504 kts 85°
2026-04-21 04:52 21.16624 -168.44128 34996 ft 504 kts 85°
2026-04-21 04:53 21.16697 -168.36620 34995 ft 504 kts 85°
2026-04-21 04:53 21.16767 -168.29105 35002 ft 504 kts 85°
2026-04-21 04:54 21.16834 -168.21590 35001 ft 504 kts 85°
2026-04-21 04:54 21.16897 -168.14067 34995 ft 504 kts 85°
2026-04-21 04:55 21.16956 -168.06585 34993 ft 504 kts 85°
2026-04-21 04:55 21.17013 -167.99061 35001 ft 505 kts 85°
2026-04-21 04:56 21.17066 -167.91529 35009 ft 504 kts 85°
2026-04-21 04:56 21.17115 -167.84009 35004 ft 504 kts 85°
2026-04-21 04:57 21.17162 -167.76505 35003 ft 504 kts 85°
2026-04-21 04:57 21.17205 -167.69052 35005 ft 503 kts 85°
2026-04-21 04:58 21.17244 -167.61557 34998 ft 503 kts 85°
2026-04-21 04:58 21.17281 -167.54060 35009 ft 503 kts 85°
2026-04-21 04:59 21.17314 -167.46570 34998 ft 502 kts 85°
2026-04-21 04:59 21.17344 -167.39087 35000 ft 502 kts 85°
2026-04-21 05:00 21.17370 -167.31600 35005 ft 502 kts 85°
2026-04-21 05:00 21.17404 -167.20377 35020 ft 502 kts 85°
2026-04-21 05:01 21.17422 -167.12899 35010 ft 502 kts 85°
2026-04-21 05:01 21.17437 -167.05415 35006 ft 501 kts 85°
2026-04-21 05:02 21.17449 -166.97981 35007 ft 501 kts 85°
2026-04-21 05:02 21.17457 -166.90515 35001 ft 501 kts 85°
2026-04-21 05:03 21.17462 -166.83053 35012 ft 500 kts 85°
2026-04-21 05:03 21.17464 -166.75603 35005 ft 500 kts 85°
2026-04-21 05:04 21.17463 -166.68146 35004 ft 500 kts 85°
2026-04-21 05:04 21.17458 -166.60700 35008 ft 499 kts 85°
2026-04-21 05:05 21.17450 -166.53312 35010 ft 499 kts 85°
2026-04-21 05:05 21.17439 -166.45872 35015 ft 499 kts 85°
2026-04-21 05:06 21.17425 -166.38441 35008 ft 499 kts 85°
2026-04-21 05:06 21.17407 -166.30999 35007 ft 498 kts 85°
2026-04-21 05:07 21.17386 -166.23561 35009 ft 498 kts 85°
2026-04-21 05:07 21.17362 -166.16182 35010 ft 498 kts 85°
2026-04-21 05:08 21.17335 -166.08763 35017 ft 497 kts 85°
2026-04-21 05:08 21.17310 -166.02608 35010 ft 497 kts 85°
2026-04-21 05:09 21.17277 -165.95207 35011 ft 497 kts 85°
2026-04-21 05:09 21.17240 -165.87807 35012 ft 496 kts 85°
2026-04-21 05:10 21.17201 -165.80412 35012 ft 496 kts 85°
2026-04-21 05:10 21.17158 -165.73009 35016 ft 496 kts 86°
2026-04-21 05:11 21.17113 -165.65661 35002 ft 496 kts 86°
2026-04-21 05:11 21.17063 -165.58267 35013 ft 495 kts 86°
2026-04-21 05:12 21.17011 -165.50893 35019 ft 495 kts 86°
2026-04-21 05:12 21.16956 -165.43522 35014 ft 495 kts 86°
2026-04-21 05:13 21.16897 -165.36140 35019 ft 495 kts 86°
2026-04-21 05:13 21.16835 -165.28756 35012 ft 495 kts 86°
2026-04-21 05:14 21.16770 -165.21393 35019 ft 494 kts 86°
2026-04-21 05:14 21.16703 -165.14077 35015 ft 494 kts 86°
2026-04-21 05:15 21.16631 -165.06711 35021 ft 494 kts 86°
2026-04-21 05:15 21.16557 -164.99350 35023 ft 494 kts 86°
2026-04-21 05:16 21.16479 -164.91975 35013 ft 493 kts 86°
2026-04-21 05:16 21.16399 -164.84661 35018 ft 493 kts 86°
2026-04-21 05:17 21.16315 -164.77319 35017 ft 493 kts 86°
2026-04-21 05:17 21.16228 -164.69974 35022 ft 493 kts 86°
2026-04-21 05:18 21.16138 -164.62624 35021 ft 493 kts 86°
2026-04-21 05:18 21.16045 -164.55284 35016 ft 493 kts 86°
2026-04-21 05:19 21.15949 -164.47978 35017 ft 493 kts 86°
2026-04-21 05:19 21.15849 -164.40629 35022 ft 493 kts 86°
2026-04-21 05:20 21.15746 -164.33274 35027 ft 493 kts 86°
2026-04-21 05:20 21.15640 -164.25920 35021 ft 493 kts 86°
2026-04-21 05:21 21.15531 -164.18563 35018 ft 493 kts 86°
2026-04-21 05:21 21.15418 -164.11212 35019 ft 493 kts 86°
2026-04-21 05:22 21.15304 -164.03912 35022 ft 493 kts 86°
2026-04-21 05:22 21.15186 -163.96574 35027 ft 493 kts 86°
2026-04-21 05:23 21.15130 -163.89232 35016 ft 491 kts 84°
2026-04-21 05:23 21.15367 -163.81936 35022 ft 490 kts 82°
2026-04-21 05:24 21.15658 -163.74680 35020 ft 490 kts 83°
2026-04-21 05:24 21.15931 -163.67379 35018 ft 490 kts 83°
2026-04-21 05:25 21.16182 -163.60061 35027 ft 490 kts 83°
2026-04-21 05:25 21.16423 -163.52756 35021 ft 491 kts 83°
2026-04-21 05:26 21.16660 -163.45486 35023 ft 491 kts 83°
2026-04-21 05:26 21.16897 -163.38171 35023 ft 491 kts 83°
2026-04-21 05:27 21.17130 -163.30855 35021 ft 491 kts 83°
2026-04-21 05:27 21.17361 -163.23542 35024 ft 491 kts 83°
2026-04-21 05:28 21.17588 -163.16268 35021 ft 491 kts 83°
2026-04-21 05:28 21.17813 -163.08931 35026 ft 491 kts 83°
2026-04-21 05:29 21.18034 -163.01618 35028 ft 491 kts 83°
2026-04-21 05:29 21.18252 -162.94289 35041 ft 491 kts 83°
2026-04-21 05:30 21.18467 -162.86999 35028 ft 492 kts 83°
2026-04-21 05:30 21.18679 -162.79679 35027 ft 492 kts 83°
2026-04-21 05:31 21.18888 -162.72356 35021 ft 492 kts 83°
2026-04-21 05:31 21.19093 -162.65024 35022 ft 492 kts 83°
2026-04-21 05:32 21.19296 -162.57693 35035 ft 492 kts 83°
2026-04-21 05:32 21.19496 -162.50351 35026 ft 493 kts 83°
2026-04-21 05:33 21.19692 -162.43042 35038 ft 493 kts 83°
2026-04-21 05:33 21.19886 -162.35689 35027 ft 494 kts 83°
2026-04-21 05:34 21.20077 -162.28320 35025 ft 494 kts 83°
2026-04-21 05:34 21.20265 -162.20939 35033 ft 495 kts 83°
2026-04-21 05:35 21.20449 -162.13606 35028 ft 495 kts 83°
2026-04-21 05:35 21.20631 -162.06222 35027 ft 496 kts 83°
2026-04-21 05:36 21.20810 -161.98825 35027 ft 496 kts 83°
2026-04-21 05:36 21.20986 -161.91425 35030 ft 496 kts 83°
2026-04-21 05:37 21.21159 -161.84020 35035 ft 497 kts 83°
2026-04-21 05:37 21.21329 -161.76598 35027 ft 498 kts 84°
2026-04-21 05:38 21.21495 -161.69170 35031 ft 498 kts 84°
2026-04-21 05:38 21.21658 -161.61777 35032 ft 499 kts 84°
2026-04-21 05:39 21.21818 -161.54333 35045 ft 499 kts 84°
2026-04-21 05:39 21.21976 -161.46884 35027 ft 500 kts 84°
2026-04-21 05:40 21.22131 -161.39419 35030 ft 501 kts 84°
2026-04-21 05:40 21.22282 -161.31937 35024 ft 502 kts 84°
2026-04-21 05:41 21.22430 -161.24459 35033 ft 502 kts 84°
2026-04-21 05:41 21.22575 -161.16976 35031 ft 502 kts 84°
2026-04-21 05:42 21.22716 -161.09526 35028 ft 502 kts 84°
2026-04-21 05:42 21.23019 -161.02063 35029 ft 498 kts 79°
2026-04-21 05:43 21.23749 -160.94681 35037 ft 497 kts 78°
2026-04-21 05:43 21.24507 -160.87345 35049 ft 497 kts 79°
2026-04-21 05:44 21.25245 -160.79944 35033 ft 499 kts 79°
2026-04-21 05:44 21.25958 -160.72579 35035 ft 500 kts 79°
2026-04-21 05:45 21.26669 -160.65150 35032 ft 500 kts 79°
2026-04-21 05:45 21.27378 -160.57717 35033 ft 501 kts 79°
2026-04-21 05:46 21.28081 -160.50325 35040 ft 501 kts 79°
2026-04-21 05:46 21.28786 -160.42879 35047 ft 502 kts 79°
2026-04-21 05:47 21.29488 -160.35428 35037 ft 502 kts 79°
2026-04-21 05:47 21.30187 -160.27983 35038 ft 502 kts 79°
2026-04-21 05:48 21.30881 -160.20541 35038 ft 501 kts 79°
2026-04-21 05:48 21.31574 -160.13086 34705 ft 507 kts 79°
2026-04-21 05:49 21.31932 -160.09275 33817 ft 515 kts 79°
2026-04-21 05:49 21.32286 -160.05451 32877 ft 516 kts 79°
2026-04-21 05:49 21.32633 -160.01668 32055 ft 515 kts 79°
2026-04-21 05:49 21.32978 -159.97874 31475 ft 508 kts 79°
2026-04-21 05:50 21.33319 -159.94106 30896 ft 504 kts 79°
2026-04-21 05:50 21.33657 -159.90387 30324 ft 499 kts 79°
2026-04-21 05:50 21.33992 -159.86698 29704 ft 495 kts 79°
2026-04-21 05:50 21.34325 -159.83033 29080 ft 491 kts 79°
2026-04-21 05:51 21.34655 -159.79404 28483 ft 486 kts 79°
2026-04-21 05:51 21.34981 -159.75805 27908 ft 481 kts 79°
2026-04-21 05:51 21.35303 -159.72238 27347 ft 477 kts 79°
2026-04-21 05:51 21.35620 -159.68720 26912 ft 470 kts 80°
2026-04-21 05:52 21.35931 -159.65250 26445 ft 465 kts 80°
2026-04-21 05:52 21.36240 -159.61810 25915 ft 461 kts 80°
2026-04-21 05:52 21.36542 -159.58442 25397 ft 458 kts 80°
2026-04-21 05:52 21.36847 -159.55047 24872 ft 455 kts 80°
2026-04-21 05:53 21.37149 -159.51668 24335 ft 453 kts 80°
2026-04-21 05:53 21.37448 -159.48308 23804 ft 451 kts 80°
2026-04-21 05:53 21.37745 -159.44966 23207 ft 449 kts 80°
2026-04-21 05:53 21.38040 -159.41640 22642 ft 446 kts 81°
2026-04-21 05:54 21.38331 -159.38348 22107 ft 442 kts 81°
2026-04-21 05:54 21.38619 -159.35077 21586 ft 438 kts 81°
2026-04-21 05:54 21.38901 -159.31870 21079 ft 435 kts 82°
2026-04-21 05:54 21.39183 -159.28650 20573 ft 432 kts 82°
2026-04-21 05:55 21.39463 -159.25452 20072 ft 429 kts 82°
2026-04-21 05:55 21.39742 -159.22267 19571 ft 426 kts 83°
2026-04-21 05:55 21.40018 -159.19102 19069 ft 424 kts 83°
2026-04-21 05:55 21.40292 -159.15957 18545 ft 423 kts 83°
2026-04-21 05:56 21.40565 -159.12815 18005 ft 421 kts 83°
2026-04-21 05:56 21.40835 -159.09687 17457 ft 419 kts 84°
2026-04-21 05:56 21.41013 -159.07623 17112 ft 416 kts 84°
2026-04-21 05:56 21.41278 -159.04543 16605 ft 413 kts 84°
2026-04-21 05:57 21.41627 -159.00485 15903 ft 410 kts 84°
2026-04-21 05:57 21.41888 -158.97447 15399 ft 407 kts 84°
2026-04-21 05:57 21.42059 -158.95447 15063 ft 406 kts 84°
2026-04-21 05:57 21.42317 -158.92433 14562 ft 403 kts 84°
2026-04-21 05:58 21.42572 -158.89442 14050 ft 401 kts 84°
2026-04-21 05:58 21.42826 -158.86464 13509 ft 399 kts 84°
2026-04-21 05:58 21.43077 -158.83501 12982 ft 396 kts 84°
2026-04-21 05:58 21.43326 -158.80571 12472 ft 393 kts 84°
2026-04-21 05:59 21.43572 -158.77663 11970 ft 389 kts 84°
2026-04-21 05:59 21.43814 -158.74785 11482 ft 386 kts 84°
2026-04-21 05:59 21.44055 -158.71927 10995 ft 383 kts 84°
2026-04-21 06:00 21.44517 -158.66425 10621 ft 361 kts 84°
2026-04-21 06:00 21.44738 -158.63781 10470 ft 350 kts 84°
2026-04-21 06:00 21.44952 -158.61221 10319 ft 339 kts 84°
2026-04-21 06:00 21.45160 -158.58732 10173 ft 329 kts 84°
2026-04-21 06:01 21.45362 -158.56313 10038 ft 320 kts 84°
2026-04-21 06:01 21.45556 -158.53976 9790 ft 307 kts 84°
2026-04-21 06:01 21.45742 -158.51737 9435 ft 294 kts 84°
2026-04-21 06:01 21.45917 -158.49622 9111 ft 282 kts 84°
2026-04-21 06:02 21.46089 -158.47540 8810 ft 278 kts 84°
2026-04-21 06:02 21.46174 -158.45488 8484 ft 273 kts 97°
2026-04-21 06:02 21.45514 -158.43612 8203 ft 267 kts 123°
2026-04-21 06:02 21.44482 -158.41922 7940 ft 276 kts 123°
2026-04-21 06:03 21.43421 -158.40166 7626 ft 283 kts 123°
2026-04-21 06:03 21.42349 -158.38383 7305 ft 284 kts 122°
2026-04-21 06:03 21.41280 -158.36604 6983 ft 284 kts 122°
2026-04-21 06:03 21.40222 -158.34843 6680 ft 283 kts 122°
2026-04-21 06:04 21.39153 -158.33063 6339 ft 283 kts 122°
2026-04-21 06:04 21.38086 -158.31285 6022 ft 283 kts 122°
2026-04-21 06:04 21.37025 -158.29514 5712 ft 282 kts 122°
2026-04-21 06:04 21.35966 -158.27747 5391 ft 281 kts 122°
2026-04-21 06:05 21.34910 -158.25989 5067 ft 279 kts 122°
2026-04-21 06:05 21.33873 -158.24260 4936 ft 270 kts 122°
2026-04-21 06:05 21.32884 -158.22588 4791 ft 258 kts 117°
2026-04-21 06:05 21.32446 -158.20796 4510 ft 245 kts 88°
2026-04-21 06:06 21.32515 -158.18999 4180 ft 242 kts 88°
2026-04-21 06:06 21.32525 -158.18230 4078 ft 241 kts 89°
2026-04-21 06:06 21.32526 -158.17235 4021 ft 234 kts 89°
2026-04-21 06:06 21.32522 -158.15507 3763 ft 232 kts 89°
2026-04-21 06:07 21.32521 -158.13785 3483 ft 230 kts 89°
2026-04-21 06:07 21.32522 -158.12065 3188 ft 229 kts 89°
2026-04-21 06:07 21.32522 -158.10368 2939 ft 226 kts 90°
2026-04-21 06:07 21.32523 -158.08680 2610 ft 226 kts 90°
2026-04-21 06:08 21.32523 -158.06998 2306 ft 224 kts 90°
2026-04-21 06:08 21.32523 -158.05377 2049 ft 208 kts 90°
2026-04-21 06:08 21.32523 -158.03885 1752 ft 193 kts 90°
2026-04-21 06:08 21.32523 -158.02496 1492 ft 178 kts 90°
2026-04-21 06:09 21.32523 -158.01235 1269 ft 163 kts 90°
2026-04-21 06:09 21.32524 -158.00083 1093 ft 150 kts 90°
2026-04-21 06:09 21.32524 -157.98953 922 ft 153 kts 90°
2026-04-21 06:09 21.32524 -157.97813 682 ft 151 kts 91°
2026-04-21 06:10 21.32523 -157.96698 476 ft 148 kts 91°
2026-04-21 06:10 21.32525 -157.95599 294 ft 147 kts 91°
2026-04-21 06:10 21.32526 -157.94501 115 ft 147 kts 91°
2026-04-21 06:10 21.32524 -157.93417 30 ft 138 kts 90°
2026-04-21 06:11 21.32525 -157.92554 29 ft 90 kts 90°
2026-04-21 06:11 21.32523 -157.92056 29 ft 48 kts 90°
2026-04-21 06:11 21.32544 -157.91860 29 ft 16 kts 55°
2026-04-21 06:11 21.32627 -157.91842 29 ft 12 kts 341°
2026-04-21 06:12 21.32697 -157.91889 29 ft 12 kts 327°
2026-04-21 06:12 21.32760 -157.91950 29 ft 12 kts 299°
2026-04-21 06:12 21.32774 -157.92040 29 ft 12 kts 270°
2026-04-21 06:12 21.32778 -157.92134 29 ft 13 kts 286°
2026-04-21 06:13 21.32850 -157.92170 29 ft 13 kts
2026-04-21 06:13 21.32939 -157.92154 29 ft 13 kts
2026-04-21 06:13 21.33018 -157.92141 29 ft 9 kts
2026-04-21 06:13 21.33070 -157.92132 29 ft 7 kts
2026-04-21 06:14 21.33115 -157.92125 29 ft 5 kts
2026-04-21 06:14 21.33128 -157.92123 29 ft 0 kts